9W2XPF-13 Weather Reports


Display with metric or nautical units.
time (UTC)temp
F
wind
direction
speed
MPH
gust
MPH
rain 1hr
in
rain 24hr
in
rain mn
in
humidity
%
barometer
mb
20260504160401 76 315 1.0 2.0 0.00 0.07 0.00 98 1010.0
20260504160200 76 315 0.0 2.0 0.00 0.07 0.00 99 1010.1
20260504151001 76 315 1.0 2.0 0.00 0.07 0.07 98 1009.5
20260504150801 76 315 0.0 2.0 0.00 0.07 0.07 98 1009.7
20260504150601 76 315 0.0 2.0 0.00 0.07 0.07 98 1009.6
20260504150401 76 315 2.0 2.0 0.00 0.07 0.07 98 1009.5
20260504150201 76 315 1.0 2.0 0.00 0.07 0.07 98 1009.7
20260504141201 77 292 2.0 2.0 0.00 0.07 0.07 97 1009.5
20260504141001 77 292 1.0 2.0 0.00 0.07 0.07 97 1009.4
20260504140801 77 292 0.0 2.0 0.00 0.07 0.07 97 1009.2
20260504140602 77 292 0.0 2.0 0.00 0.07 0.07 97 1009.3
20260504140402 77 292 0.0 2.0 0.00 0.07 0.07 97 1009.2
20260504140201 77 292 0.0 2.0 0.00 0.07 0.07 97 1009.2
20260504130801 78 292 0.0 2.0 0.00 0.07 0.07 96 1008.8
20260504130601 78 292 0.0 2.0 0.00 0.07 0.07 96 1008.5
20260504130401 78 292 0.0 2.0 0.00 0.07 0.07 96 1008.6
20260504130202 78 292 0.0 2.0 0.00 0.07 0.07 96 1008.5
20260504120201 78 292 0.0 2.0 0.00 0.07 0.07 96 1007.8
20260504110602 79 292 2.0 2.0 0.00 0.07 0.07 92 1007.7
20260504110401 79 289 1.0 2.0 0.00 0.07 0.07 92 1007.6
20260504110201 80 280 0.0 2.0 0.00 0.07 0.07 92 1007.6
20260504100601 82 263 0.0 2.0 0.00 0.07 0.07 86 1007.2
20260504100401 82 260 0.0 2.0 0.00 0.07 0.07 87 1007.1
20260504100202 82 255 1.0 2.0 0.00 0.07 0.07 86 1007.2
20260504082002 80 299 1.0 8.0 0.00 0.07 0.07 89 1007.3
20260504081802 80 307 2.0 8.0 0.00 0.07 0.07 89 1007.2
20260504081602 80 305 1.0 11.0 0.00 0.07 0.07 89 1007.2
20260504081402 80 299 2.0 11.0 0.00 0.07 0.07 89 1007.2
20260504081202 80 297 4.0 11.0 0.00 0.07 0.07 88 1007.1
20260504081002 80 297 4.0 11.0 0.00 0.07 0.07 88 1007.3
20260504080802 81 297 5.0 11.0 0.00 0.07 0.07 88 1007.0
20260504080602 81 303 7.0 11.0 0.00 0.07 0.07 88 1007.2
20260504080402 81 320 7.0 11.0 0.00 0.07 0.07 87 1007.3
20260504080201 81 339 3.0 8.0 0.00 0.07 0.07 88 1007.3
20260504070402 82 90 0.0 6.0 0.05 0.07 0.07 94 1008.0
20260504070202 82 86 3.0 6.0 0.05 0.07 0.07 94 1007.9
20260504060202 80 129 11.0 18.0 0.02 0.02 0.02 93 1008.8
20260504050602 93 256 2.0 7.0 0.00 0.00 0.00 60 1009.5
20260504050402 94 274 4.0 7.0 0.00 0.00 0.00 60 1009.6
20260504050202 93 311 4.0 6.0 0.00 0.00 0.00 60 1009.5
20260504050002 93 324 1.0 7.0 0.00 0.00 0.00 61 1009.6
20260504045802 92 295 2.0 7.0 0.00 0.00 0.00 61 1009.5
20260504045602 92 288 2.0 7.0 0.00 0.00 0.00 61 1009.6
20260504045402 92 285 2.0 7.0 0.00 0.00 0.00 61 1009.5
20260504045202 92 281 2.0 7.0 0.00 0.00 0.00 61 1009.6
20260504045002 92 279 2.0 4.0 0.00 0.00 0.00 62 1009.6
20260504044802 91 294 1.0 4.0 0.00 0.00 0.00 64 1009.8
20260504044602 91 302 0.0 4.0 0.00 0.00 0.00 65 1009.8
20260504044402 91 307 2.0 4.0 0.00 0.00 0.00 65 1009.9
20260504044203 91 318 2.0 4.0 0.00 0.00 0.00 66 1009.8
20260504044002 91 325 4.0 4.0 0.00 0.00 0.00 66 1009.9
20260504043802 91 320 3.0 6.0 0.00 0.00 0.00 65 1009.9
20260504043602 91 315 2.0 6.0 0.00 0.00 0.00 66 1009.9
20260504043402 91 303 2.0 8.0 0.00 0.00 0.00 66 1009.7
20260504043202 91 300 2.0 8.0 0.00 0.00 0.00 66 1009.8
20260504043002 92 304 4.0 8.0 0.00 0.00 0.00 64 1009.9
20260504042802 92 308 4.0 8.0 0.00 0.00 0.00 65 1010.0
20260504042602 93 303 4.0 8.0 0.00 0.00 0.00 63 1010.0
20260504042402 93 312 2.0 6.0 0.00 0.00 0.00 61 1010.1
20260504042202 93 315 2.0 6.0 0.00 0.00 0.00 60 1009.8
20260504042002 93 301 3.0 6.0 0.00 0.00 0.00 60 1009.9
20260504041802 92 285 1.0 4.0 0.00 0.00 0.00 62 1010.0
20260504041602 92 290 1.0 4.0 0.00 0.00 0.00 63 1010.0
20260504041402 92 275 2.0 4.0 0.00 0.00 0.00 63 1010.0
20260504041202 92 257 3.0 4.0 0.00 0.00 0.00 64 1010.1
20260504041002 92 255 2.0 4.0 0.00 0.00 0.00 65 1010.0
20260504040802 92 260 2.0 6.0 0.00 0.00 0.00 64 1010.1
20260504040602 92 257 3.0 6.0 0.00 0.00 0.00 63 1010.1
20260504040402 91 265 2.0 6.0 0.00 0.00 0.00 64 1010.3
20260504040202 90 275 2.0 6.0 0.00 0.00 0.00 67 1010.2
20260504040002 90 280 1.0 6.0 0.00 0.00 0.00 68 1010.2
20260504035802 90 278 4.0 4.0 0.00 0.00 0.00 67 1010.3
20260504035602 90 272 2.0 4.0 0.00 0.00 0.00 67 1010.1
20260504035402 90 258 1.0 4.0 0.00 0.00 0.00 66 1010.3
20260504035202 90 251 3.0 4.0 0.00 0.00 0.00 66 1010.3
20260504035002 90 252 2.0 4.0 0.00 0.00 0.00 68 1010.5
20260504034802 90 263 2.0 4.0 0.00 0.00 0.00 68 1010.4
20260504034602 90 282 1.0 6.0 0.00 0.00 0.00 67 1010.3
20260504034402 90 287 2.0 6.0 0.00 0.00 0.00 67 1010.3
20260504034202 90 294 2.0 6.0 0.00 0.00 0.00 68 1010.3
20260504034002 90 296 2.0 6.0 0.00 0.00 0.00 68 1010.3
20260504033802 91 288 2.0 6.0 0.00 0.00 0.00 67 1010.2
20260504033602 91 281 3.0 6.0 0.00 0.00 0.00 67 1010.2
20260504033402 91 276 4.0 6.0 0.00 0.00 0.00 66 1010.3
20260504033202 91 259 2.0 6.0 0.00 0.00 0.00 67 1010.3
20260504033002 91 270 2.0 4.0 0.00 0.00 0.00 67 1010.3
20260504032802 91 330 2.0 4.0 0.00 0.00 0.00 68 1010.3
20260504032602 90 2 2.0 4.0 0.00 0.00 0.00 68 1010.4
20260504032402 90 9 1.0 4.0 0.00 0.00 0.00 69 1010.4
20260504032202 89 342 1.0 4.0 0.00 0.00 0.00 70 1010.3
20260504032002 89 327 0.0 4.0 0.00 0.00 0.00 71 1010.4
20260504031802 89 315 2.0 4.0 0.00 0.00 0.00 71 1010.3
20260504031602 89 312 2.0 6.0 0.00 0.00 0.00 71 1010.5
20260504031402 89 301 1.0 6.0 0.00 0.00 0.00 71 1010.5
20260504031202 89 293 3.0 6.0 0.00 0.00 0.00 71 1010.6
20260504031003 89 279 3.0 6.0 0.00 0.00 0.00 70 1010.5
20260504030802 89 282 2.0 6.0 0.00 0.00 0.00 70 1010.5
20260504030602 90 272 1.0 6.0 0.00 0.00 0.00 70 1010.5
20260504030402 90 277 2.0 7.0 0.00 0.00 0.00 70 1010.8
20260504030202 90 283 2.0 7.0 0.00 0.00 0.00 70 1010.5
20260504030002 90 295 3.0 7.0 0.00 0.00 0.00 70 1010.6
20260504025802 90 302 4.0 7.0 0.00 0.00 0.00 71 1010.6
20260504025602 91 326 3.0 7.0 0.00 0.00 0.00 70 1010.6
20260504025402 91 355 2.0 4.0 0.00 0.00 0.00 69 1010.7
20260504025202 90 353 1.0 4.0 0.00 0.00 0.00 69 1010.6
20260504025002 90 340 1.0 4.0 0.00 0.00 0.00 70 1010.6
20260504024802 89 317 0.0 4.0 0.00 0.00 0.00 71 1010.6
20260504024602 89 311 2.0 4.0 0.00 0.00 0.00 72 1010.7
20260504024402 89 311 1.0 4.0 0.00 0.00 0.00 72 1010.6
20260504024202 90 318 3.0 4.0 0.00 0.00 0.00 71 1010.5
20260504024003 90 309 2.0 4.0 0.00 0.00 0.00 71 1010.6
20260504023802 91 330 2.0 4.0 0.00 0.00 0.00 69 1010.6
20260504023602 91 352 2.0 4.0 0.00 0.00 0.00 69 1010.7
20260504023403 91 14 1.0 4.0 0.00 0.00 0.00 71 1010.6
20260504023202 91 33 2.0 4.0 0.00 0.00 0.00 69 1010.5
20260504023003 91 73 1.0 4.0 0.00 0.00 0.00 71 1010.5
20260504022802 90 89 2.0 4.0 0.00 0.00 0.00 71 1010.6
20260504022603 90 103 2.0 4.0 0.00 0.00 0.00 72 1010.4
20260504022402 89 107 1.0 4.0 0.00 0.00 0.00 73 1010.6
20260504022202 89 112 2.0 4.0 0.00 0.00 0.00 74 1010.8
20260504022002 89 148 3.0 4.0 0.00 0.00 0.00 73 1010.8
20260504021803 89 233 2.0 4.0 0.00 0.00 0.00 73 1010.7
20260504021602 89 235 2.0 4.0 0.00 0.00 0.00 74 1010.8
20260504021402 89 235 0.0 4.0 0.00 0.00 0.00 74 1010.8
20260504021203 88 241 1.0 4.0 0.00 0.00 0.00 75 1010.8
20260504021003 88 259 2.0 4.0 0.00 0.00 0.00 75 1010.6
20260504020802 87 255 2.0 4.0 0.00 0.00 0.00 76 1010.7
20260504020603 87 265 1.0 4.0 0.00 0.00 0.00 76 1010.6
20260504020403 87 266 2.0 4.0 0.00 0.00 0.00 76 1010.5
20260504020203 88 274 2.0 4.0 0.00 0.00 0.00 76 1010.6
20260504020003 88 265 2.0 4.0 0.00 0.00 0.00 76 1010.5
20260504015803 87 266 2.0 4.0 0.00 0.00 0.00 76 1010.4
20260504015602 87 268 1.0 4.0 0.00 0.00 0.00 77 1010.4
20260504015403 87 271 2.0 4.0 0.00 0.00 0.00 77 1010.5
20260504015202 87 265 2.0 4.0 0.00 0.00 0.00 78 1010.6
20260504015003 87 272 1.0 4.0 0.00 0.00 0.00 78 1010.5
20260504014803 87 273 2.0 4.0 0.00 0.00 0.00 79 1010.5
20260504014603 87 281 1.0 6.0 0.00 0.00 0.00 79 1010.7
20260504014403 86 286 1.0 6.0 0.00 0.00 0.00 80 1010.4
20260504014203 86 285 3.0 6.0 0.00 0.00 0.00 80 1010.6
20260504014003 86 288 3.0 6.0 0.00 0.00 0.00 80 1010.7
20260504013803 86 293 3.0 6.0 0.00 0.00 0.00 80 1010.6
20260504013602 86 282 2.0 4.0 0.00 0.00 0.00 80 1010.7
20260504013403 86 280 2.0 4.0 0.00 0.00 0.00 80 1010.6
20260504013203 85 285 2.0 4.0 0.00 0.00 0.00 81 1010.6
20260504013003 85 279 1.0 4.0 0.00 0.00 0.00 82 1010.5
20260504012803 85 286 1.0 4.0 0.00 0.00 0.00 82 1010.4
20260504012603 85 293 0.0 4.0 0.00 0.00 0.00 83 1010.4
20260504012403 85 295 2.0 4.0 0.00 0.00 0.00 84 1010.6
20260504012203 84 299 1.0 4.0 0.00 0.00 0.00 85 1010.5
20260504012003 84 317 2.0 4.0 0.00 0.00 0.00 86 1010.3
20260504011803 84 324 2.0 2.0 0.00 0.00 0.00 87 1010.4
20260504011603 84 332 1.0 4.0 0.00 0.00 0.00 89 1010.3
20260504011403 83 336 1.0 4.0 0.00 0.00 0.00 90 1010.4
20260504011203 83 340 1.0 4.0 0.00 0.00 0.00 90 1010.3
20260504011003 82 340 2.0 4.0 0.00 0.00 0.00 91 1010.3
20260504010802 82 337 1.0 4.0 0.00 0.00 0.00 92 1010.2
20260504010603 82 333 1.0 4.0 0.00 0.00 0.00 92 1010.1
20260504010403 82 334 2.0 4.0 0.00 0.00 0.00 92 1010.2
20260504010203 82 336 2.0 4.0 0.00 0.00 0.00 93 1010.0
20260504010002 82 340 2.0 2.0 0.00 0.00 0.00 93 1010.0
20260504005803 81 342 1.0 2.0 0.00 0.00 0.00 94 1010.0
20260504005603 81 347 2.0 2.0 0.00 0.00 0.00 94 1010.0
20260504005403 81 355 2.0 2.0 0.00 0.00 0.00 94 1009.8
20260504005203 81 360 0.0 2.0 0.00 0.00 0.00 95 1009.9
20260504005003 81 344 2.0 2.0 0.00 0.00 0.00 95 1009.9
20260504004803 81 341 1.0 2.0 0.00 0.00 0.00 95 1009.7
20260504004603 81 310 2.0 2.0 0.00 0.00 0.00 96 1009.9
20260504004403 81 287 1.0 2.0 0.00 0.00 0.00 96 1009.6
20260504004203 81 270 1.0 2.0 0.00 0.00 0.00 96 1009.8
20260504004002 81 270 0.0 2.0 0.00 0.00 0.00 97 1009.6
20260504003803 80 270 2.0 2.0 0.00 0.00 0.00 97 1009.8
20260504003603 80 270 1.0 2.0 0.00 0.00 0.00 97 1009.8
20260504003403 80 270 0.0 2.0 0.00 0.00 0.00 97 1009.7
20260504003203 80 270 0.0 2.0 0.00 0.00 0.00 98 1009.8
20260504003003 80 270 0.0 2.0 0.00 0.00 0.00 98 1009.8
20260504002803 79 270 1.0 2.0 0.00 0.00 0.00 98 1009.7
20260504002603 79 270 1.0 2.0 0.00 0.00 0.00 98 1009.7
20260504002403 79 270 0.0 2.0 0.00 0.00 0.00 99 1009.7
20260504002203 79 270 0.0 2.0 0.00 0.00 0.00 99 1009.4
20260504002003 79 270 0.0 2.0 0.00 0.00 0.00 99 1009.5
20260504001803 78 270 0.0 2.0 0.00 0.00 0.00 99 1009.4
20260504001602 78 270 0.0 2.0 0.00 0.00 0.00 99 1009.3
20260504001402 78 270 0.0 2.0 0.00 0.00 0.00 99 1009.1
20260504001203 78 270 1.0 2.0 0.00 0.00 0.00 99 1009.4
20260504001003 78 270 1.0 2.0 0.00 0.00 0.00 99 1009.2
20260504000803 78 270 2.0 2.0 0.00 0.00 0.00 99 1009.3
20260504000603 78 270 2.0 2.0 0.00 0.00 0.00 99 1009.2
20260504000402 78 270 1.0 2.0 0.00 0.00 0.00 99 1009.4
20260504000204 78 270 1.0 2.0 0.00 0.00 0.00 99 1009.1
20260504000003 78 270 0.0 2.0 0.00 0.00 0.00 99 1009.4
20260503235803 77 270 0.0 2.0 0.00 0.00 0.00 99 1009.2
20260503235603 77 270 0.0 2.0 0.00 0.00 0.00 99 1009.1
20260503235403 76 270 1.0 2.0 0.00 0.00 0.00 99 1009.2
20260503235203 76 270 0.0 2.0 0.00 0.00 0.00 99 1009.0
20260503235003 76 270 2.0 2.0 0.00 0.00 0.00 99 1009.1
20260503234802 76 270 1.0 2.0 0.00 0.00 0.00 99 1009.2
20260503234603 76 270 0.0 2.0 0.00 0.00 0.00 99 1009.2
20260503234403 76 270 1.0 2.0 0.00 0.00 0.00 99 1009.1
20260503234203 76 270 1.0 2.0 0.00 0.00 0.00 99 1009.2
20260503234003 76 270 1.0 2.0 0.00 0.00 0.00 99 1009.1
20260503233803 76 270 1.0 2.0 0.00 0.00 0.00 99 1008.9
20260503233603 76 270 1.0 2.0 0.00 0.00 0.00 99 1009.1
20260503233403 76 270 0.0 2.0 0.00 0.00 0.00 99 1008.9
20260503233203 75 270 1.0 2.0 0.00 0.00 0.00 99 1009.1
20260503233003 75 270 1.0 2.0 0.00 0.00 0.00 99 1008.8
20260503232803 75 270 2.0 2.0 0.00 0.00 0.00 99 1008.8
20260503232603 75 270 0.0 2.0 0.00 0.00 0.00 99 1008.8
20260503232403 75 270 0.0 2.0 0.00 0.00 0.00 99 1008.8
20260503232203 75 270 0.0 2.0 0.00 0.00 0.00 99 1008.6
20260503232002 74 270 0.0 2.0 0.00 0.00 0.00 99 1008.7
20260503231803 74 270 0.0 2.0 0.00 0.00 0.00 99 1008.8
20260503231603 74 270 0.0 2.0 0.00 0.00 0.00 99 1008.7
20260503231403 74 270 0.0 2.0 0.00 0.00 0.00 99 1008.6
20260503231203 74 270 0.0 2.0 0.00 0.00 0.00 99 1008.7
20260503231003 74 270 1.0 2.0 0.00 0.00 0.00 99 1008.6
20260503230802 74 270 1.0 2.0 0.00 0.00 0.00 99 1008.8
20260503230603 74 270 2.0 2.0 0.00 0.00 0.00 99 1008.4
20260503230403 74 270 1.0 2.0 0.00 0.00 0.00 99 1008.7
20260503230203 74 270 2.0 2.0 0.00 0.00 0.00 99 1008.6
20260503230003 74 270 2.0 2.0 0.00 0.00 0.00 99 1008.6
20260503225803 74 270 1.0 2.0 0.00 0.00 0.00 99 1008.5
20260503225603 74 270 2.0 2.0 0.00 0.00 0.00 99 1008.4
20260503225402 74 270 1.0 2.0 0.00 0.00 0.00 99 1008.5
20260503225203 74 270 2.0 2.0 0.00 0.00 0.00 99 1008.6
20260503225004 74 270 0.0 2.0 0.00 0.00 0.00 99 1008.5
20260503224803 74 270 1.0 2.0 0.00 0.00 0.00 99 1008.5
20260503224603 74 270 1.0 2.0 0.00 0.00 0.00 99 1008.5
20260503224403 74 270 1.0 2.0 0.00 0.00 0.00 99 1008.5
20260503224203 74 270 1.0 2.0 0.00 0.00 0.00 99 1008.6
20260503224003 74 270 0.0 2.0 0.00 0.00 0.00 99 1008.4
20260503223803 74 270 0.0 2.0 0.00 0.00 0.00 99 1008.5
20260503223603 74 270 0.0 2.0 0.00 0.00 0.00 99 1008.5
20260503223403 74 270 2.0 2.0 0.00 0.00 0.00 99 1008.4
20260503223202 74 270 2.0 2.0 0.00 0.00 0.00 99 1008.5
20260503223003 74 270 2.0 2.0 0.00 0.00 0.00 99 1008.4
20260503222803 74 270 2.0 2.0 0.00 0.00 0.00 99 1008.3
20260503222603 74 270 2.0 2.0 0.00 0.00 0.00 99 1008.2
20260503222403 74 270 1.0 2.0 0.00 0.00 0.00 99 1008.1
20260503222203 74 270 1.0 2.0 0.00 0.00 0.00 99 1008.4
20260503222003 74 270 0.0 2.0 0.00 0.00 0.00 99 1008.1
20260503221804 74 270 0.0 2.0 0.00 0.00 0.00 99 1008.1
20260503221603 75 270 1.0 2.0 0.00 0.00 0.00 99 1008.4
20260503221403 75 270 0.0 2.0 0.00 0.00 0.00 99 1008.1
20260503221203 75 270 0.0 2.0 0.00 0.00 0.00 99 1008.2
20260503221003 75 270 0.0 2.0 0.00 0.00 0.00 99 1008.2
20260503220803 75 270 0.0 2.0 0.00 0.00 0.00 99 1008.1
20260503220603 75 270 1.0 2.0 0.00 0.00 0.00 99 1008.2
20260503220402 75 270 0.0 2.0 0.00 0.00 0.00 99 1008.2
20260503220204 75 270 0.0 2.0 0.00 0.00 0.00 99 1008.0
20260503220003 75 270 0.0 2.0 0.00 0.00 0.00 99 1008.1
20260503215803 75 270 0.0 2.0 0.00 0.00 0.00 99 1008.1
20260503215603 75 270 0.0 2.0 0.00 0.00 0.00 99 1007.9
20260503215403 74 0 0.0 0.0 0.00 0.00 0.00 99 1008.2
20260503215203 74 0 0.0 0.0 0.00 0.00 0.00 99 1007.9
20260503215003 74 0 0.0 0.0 0.00 0.00 0.00 99 1007.8
20260503214803 74 0 0.0 0.0 0.00 0.00 0.00 99 1008.1
20260503214604 74 0 0.0 0.0 0.00 0.00 0.00 99 1008.0
20260503214403 74 0 0.0 0.0 0.00 0.00 0.00 99 1008.0
20260503214203 75 270 0.0 2.0 0.00 0.00 0.00 99 1007.8
20260503214003 75 270 0.0 2.0 0.00 0.00 0.00 99 1008.0
20260503213803 75 270 0.0 2.0 0.00 0.00 0.00 99 1007.9
20260503213603 75 270 0.0 2.0 0.00 0.00 0.00 99 1008.1
20260503213403 75 270 0.0 2.0 0.00 0.00 0.00 99 1008.0
20260503213203 75 270 0.0 2.0 0.00 0.00 0.00 99 1008.2
20260503213003 75 270 1.0 2.0 0.00 0.00 0.00 99 1008.3
20260503212803 75 270 1.0 2.0 0.00 0.00 0.00 99 1008.1
20260503212603 75 270 1.0 2.0 0.00 0.00 0.00 99 1008.1
20260503212403 75 270 0.0 2.0 0.00 0.00 0.00 99 1008.1
20260503212203 75 270 1.0 2.0 0.00 0.00 0.00 99 1008.0
20260503212003 75 270 0.0 2.0 0.00 0.00 0.00 99 1008.0
20260503211803 75 270 0.0 2.0 0.00 0.00 0.00 99 1008.1
20260503211603 75 270 0.0 2.0 0.00 0.00 0.00 99 1007.9
20260503211404 75 270 0.0 2.0 0.00 0.00 0.00 99 1008.0
20260503211203 75 270 0.0 2.0 0.00 0.00 0.00 99 1008.2
20260503211003 75 270 0.0 2.0 0.00 0.00 0.00 99 1008.1
20260503210803 75 270 0.0 2.0 0.00 0.00 0.00 99 1008.0
20260503210603 75 270 1.0 2.0 0.00 0.00 0.00 99 1008.0
20260503210403 75 270 1.0 2.0 0.00 0.00 0.00 99 1008.0
20260503210203 75 270 0.0 2.0 0.00 0.00 0.00 99 1008.0
20260503210004 75 270 0.0 2.0 0.00 0.00 0.00 99 1008.0
20260503205803 74 270 0.0 2.0 0.00 0.00 0.00 99 1008.1
20260503205603 74 270 0.0 2.0 0.00 0.00 0.00 99 1008.1
20260503205403 74 270 1.0 2.0 0.00 0.00 0.00 99 1008.0
20260503205203 75 270 2.0 2.0 0.00 0.00 0.00 99 1008.1